Location: Unspecified
(49.2170°N, 0.0000°E)
Time: 13:22:24
(UTC+00:00)

Vanguard 3 - Pass Details

Date: 23 January 2021
Orbit: 508 x 3261 km, 33.3° (Epoch: 28 February)

Event Time Altitude Azimuth Distance (km) Brightness Sun altitude
Rises 09:43:05 0° 266° (W) 5,447 11.1 13.9°
Reaches altitude 10° 09:47:30 10° 252° (WSW) 4,874 11.0 14.3°
Maximum altitude 09:57:21 22° 210° (SSW) 4,697 11.5 15.2°
Drops below altitude 10° 10:09:35 10° 170° (S) 6,128 13.3 16.3°
Sets 10:16:21 0° 157° (SSE) 7,218 13.8 16.8°
